owner,sensor,date,latitude,longitude,vertical_datum,sea_water_practical_salinity,qcFlag 
LUMCON,ioos:station:LUMCON:101:1,2019-04-01T00:00:00Z,29.2533,-90.6633,1.881,3.12,1111122 
LUMCON,ioos:station:LUMCON:101:1,2019-04-01T00:15:00Z,29.2533,-90.6633,1.857,3.38,1111122 
LUMCON,ioos:station:LUMCON:101:1,2019-04-01T00:30:00Z,29.2533,-90.6633,1.85,2.72,1111122 
LUMCON,ioos:station:LUMCON:101:1,2019-04-01T00:45:00Z,29.2533,-90.6633,1.885,2.83,1111122 
LUMCON,ioos:station:LUMCON:101:1,2019-04-01T01:00:00Z,29.2533,-90.6633,1.907,2.77,1111122 
LUMCON,ioos:station:LUMCON:101:1,2019-04-01T01:15:00Z,29.2533,-90.6633,1.927,3.09,1111122 
LUMCON,ioos:station:LUMCON:101:1,2019-04-01T01:30:00Z,29.2533,-90.6633,1.922,3.18,1111122 
LUMCON,ioos:station:LUMCON:101:1,2019-04-01T01:45:00Z,29.2533,-90.6633,1.92,3.38,1111122 
LUMCON,ioos:station:LUMCON:101:1,2019-04-01T02:00:00Z,29.2533,-90.6633,1.923,4.76,1111122 
LUMCON,ioos:station:LUMCON:101:1,2019-04-01T02:15:00Z,29.2533,-90.6633,1.93,4.87,1111122 
LUMCON,ioos:station:LUMCON:101:1,2019-04-01T02:30:00Z,29.2533,-90.6633,1.934,5.01,1111122 
LUMCON,ioos:station:LUMCON:101:1,2019-04-01T02:45:00Z,29.2533,-90.6633,1.93,5.24,1111122 
LUMCON,ioos:station:LUMCON:101:1,2019-04-01T03:00:00Z,29.2533,-90.6633,1.92,5.37,1111122 
LUMCON,ioos:station:LUMCON:101:1,2019-04-01T03:15:00Z,29.2533,-90.6633,1.915,5.08,1111122 
LUMCON,ioos:station:LUMCON:101:1,2019-04-01T03:30:00Z,29.2533,-90.6633,1.9,4.12,1111122 
LUMCON,ioos:station:LUMCON:101:1,2019-04-01T03:45:00Z,29.2533,-90.6633,1.908,3.78,1111122 
LUMCON,ioos:station:LUMCON:101:1,2019-04-01T04:00:00Z,29.2533,-90.6633,1.91,3.77,1111122 
LUMCON,ioos:station:LUMCON:101:1,2019-04-01T04:15:00Z,29.2533,-90.6633,1.908,3.66,1111122 
LUMCON,ioos:station:LUMCON:101:1,2019-04-01T04:30:00Z,29.2533,-90.6633,1.911,3.53,1111122 
LUMCON,ioos:station:LUMCON:101:1,2019-04-01T04:45:00Z,29.2533,-90.6633,1.897,3.53,1111122 
LUMCON,ioos:station:LUMCON:101:1,2019-04-01T05:00:00Z,29.2533,-90.6633,1.895,3.35,1111122 
LUMCON,ioos:station:LUMCON:101:1,2019-04-01T05:15:00Z,29.2533,-90.6633,1.902,3.33,1111122 
LUMCON,ioos:station:LUMCON:101:1,2019-04-01T05:30:00Z,29.2533,-90.6633,1.896,3.23,1111122 
LUMCON,ioos:station:LUMCON:101:1,2019-04-01T05:45:00Z,29.2533,-90.6633,1.902,4.98,1111122 
LUMCON,ioos:station:LUMCON:101:1,2019-04-01T06:00:00Z,29.2533,-90.6633,1.881,6.31,1111122 
LUMCON,ioos:station:LUMCON:101:1,2019-04-01T06:15:00Z,29.2533,-90.6633,1.882,6.15,1111122 
LUMCON,ioos:station:LUMCON:101:1,2019-04-01T06:30:00Z,29.2533,-90.6633,1.89,5.61,1111122 
LUMCON,ioos:station:LUMCON:101:1,2019-04-01T06:45:00Z,29.2533,-90.6633,1.883,6.01,1111122 
LUMCON,ioos:station:LUMCON:101:1,2019-04-01T07:00:00Z,29.2533,-90.6633,1.881,6.39,1111122 
LUMCON,ioos:station:LUMCON:101:1,2019-04-01T07:15:00Z,29.2533,-90.6633,1.874,6.18,1111122 
LUMCON,ioos:station:LUMCON:101:1,2019-04-01T07:30:00Z,29.2533,-90.6633,1.869,6.19,1111122 
LUMCON,ioos:station:LUMCON:101:1,2019-04-01T07:45:00Z,29.2533,-90.6633,1.865,3.54,1111122 
LUMCON,ioos:station:LUMCON:101:1,2019-04-01T08:00:00Z,29.2533,-90.6633,1.855,3.39,1111122 
LUMCON,ioos:station:LUMCON:101:1,2019-04-01T08:15:00Z,29.2533,-90.6633,1.853,2.88,1111122 
LUMCON,ioos:station:LUMCON:101:1,2019-04-01T08:30:00Z,29.2533,-90.6633,1.841,2.81,1111122 
LUMCON,ioos:station:LUMCON:101:1,2019-04-01T08:45:00Z,29.2533,-90.6633,1.826,2.75,1111122 
LUMCON,ioos:station:LUMCON:101:1,2019-04-01T09:00:00Z,29.2533,-90.6633,1.81,2.71,1111122 
LUMCON,ioos:station:LUMCON:101:1,2019-04-01T09:15:00Z,29.2533,-90.6633,1.792,2.61,1111122 
LUMCON,ioos:station:LUMCON:101:1,2019-04-01T09:30:00Z,29.2533,-90.6633,1.788,2.49,1111122 
LUMCON,ioos:station:LUMCON:101:1,2019-04-01T09:45:00Z,29.2533,-90.6633,1.784,2.35,1111122 
LUMCON,ioos:station:LUMCON:101:1,2019-04-01T10:00:00Z,29.2533,-90.6633,1.79,2.27,1111122 
LUMCON,ioos:station:LUMCON:101:1,2019-04-01T10:15:00Z,29.2533,-90.6633,1.788,2.24,1111122 
LUMCON,ioos:station:LUMCON:101:1,2019-04-01T10:30:00Z,29.2533,-90.6633,1.786,2.17,1111122 
LUMCON,ioos:station:LUMCON:101:1,2019-04-01T10:45:00Z,29.2533,-90.6633,1.787,2.12,1111122 
LUMCON,ioos:station:LUMCON:101:1,2019-04-01T11:00:00Z,29.2533,-90.6633,1.799,2.13,1111122 
LUMCON,ioos:station:LUMCON:101:1,2019-04-01T11:15:00Z,29.2533,-90.6633,1.794,2.13,1111122 
LUMCON,ioos:station:LUMCON:101:1,2019-04-01T11:30:00Z,29.2533,-90.6633,1.768,2.06,1111122 
LUMCON,ioos:station:LUMCON:101:1,2019-04-01T11:45:00Z,29.2533,-90.6633,1.753,2.09,1111122 
LUMCON,ioos:station:LUMCON:101:1,2019-04-01T12:00:00Z,29.2533,-90.6633,1.75,2.11,1111122 
LUMCON,ioos:station:LUMCON:101:1,2019-04-01T21:30:00Z,29.2533,-90.6633,1.958,5.06,1111122 
LUMCON,ioos:station:LUMCON:101:1,2019-04-01T21:45:00Z,29.2533,-90.6633,1.97,5.1,1111122 
LUMCON,ioos:station:LUMCON:101:1,2019-04-01T22:00:00Z,29.2533,-90.6633,1.977,5.18,1111122 
LUMCON,ioos:station:LUMCON:101:1,2019-04-01T22:15:00Z,29.2533,-90.6633,1.986,5.23,1111122 
LUMCON,ioos:station:LUMCON:101:1,2019-04-01T22:30:00Z,29.2533,-90.6633,2.003,5.37,1111122 
LUMCON,ioos:station:LUMCON:101:1,2019-04-01T22:45:00Z,29.2533,-90.6633,2.013,5.52,1111122 
LUMCON,ioos:station:LUMCON:101:1,2019-04-01T23:00:00Z,29.2533,-90.6633,2.009,5.71,1111122 
LUMCON,ioos:station:LUMCON:101:1,2019-04-01T23:15:00Z,29.2533,-90.6633,2.014,5.76,1111122 
LUMCON,ioos:station:LUMCON:101:1,2019-04-01T23:30:00Z,29.2533,-90.6633,2.022,5.78,1111122 
LUMCON,ioos:station:LUMCON:101:1,2019-04-01T23:45:00Z,29.2533,-90.6633,2.017,5.8,1111122 
LUMCON,ioos:station:LUMCON:101:1,2019-04-02T00:00:00Z,29.2533,-90.6633,2.023,5.87,1111122 
LUMCON,ioos:station:LUMCON:101:1,2019-04-02T00:15:00Z,29.2533,-90.6633,2.016,5.86,1111122 
LUMCON,ioos:station:LUMCON:101:1,2019-04-02T00:30:00Z,29.2533,-90.6633,2.015,6.18,1111122 
LUMCON,ioos:station:LUMCON:101:1,2019-04-02T00:45:00Z,29.2533,-90.6633,2.021,6.55,1111122 
LUMCON,ioos:station:LUMCON:101:1,2019-04-02T01:00:00Z,29.2533,-90.6633,2.029,6.69,1111122 
LUMCON,ioos:station:LUMCON:101:1,2019-04-02T01:15:00Z,29.2533,-90.6633,2.032,6.75,1111122 
LUMCON,ioos:station:LUMCON:101:1,2019-04-02T01:30:00Z,29.2533,-90.6633,2.025,7.06,1111122 
LUMCON,ioos:station:LUMCON:101:1,2019-04-02T01:45:00Z,29.2533,-90.6633,2.022,7.29,1111122 
LUMCON,ioos:station:LUMCON:101:1,2019-04-02T02:00:00Z,29.2533,-90.6633,2.02,7.48,1111122 
LUMCON,ioos:station:LUMCON:101:1,2019-04-02T02:15:00Z,29.2533,-90.6633,2.021,7.27,1111122 
LUMCON,ioos:station:LUMCON:101:1,2019-04-02T02:30:00Z,29.2533,-90.6633,2.012,7.27,1111122 
LUMCON,ioos:station:LUMCON:101:1,2019-04-02T02:45:00Z,29.2533,-90.6633,2.014,6.85,1111122 
LUMCON,ioos:station:LUMCON:101:1,2019-04-02T03:00:00Z,29.2533,-90.6633,2.02,6.66,1111122 
LUMCON,ioos:station:LUMCON:101:1,2019-04-02T03:15:00Z,29.2533,-90.6633,2.024,6.84,1111122 
LUMCON,ioos:station:LUMCON:101:1,2019-04-02T03:30:00Z,29.2533,-90.6633,2.026,8.33,1111122 
LUMCON,ioos:station:LUMCON:101:1,2019-04-02T03:45:00Z,29.2533,-90.6633,2.015,8.54,1111122 
LUMCON,ioos:station:LUMCON:101:1,2019-04-02T04:00:00Z,29.2533,-90.6633,1.995,6.84,1111122 
LUMCON,ioos:station:LUMCON:101:1,2019-04-02T04:15:00Z,29.2533,-90.6633,1.988,6.17,1111122 
LUMCON,ioos:station:LUMCON:101:1,2019-04-02T04:30:00Z,29.2533,-90.6633,1.993,5.95,1111122 
LUMCON,ioos:station:LUMCON:101:1,2019-04-02T04:45:00Z,29.2533,-90.6633,1.973,5.92,1111122 
LUMCON,ioos:station:LUMCON:101:1,2019-04-02T05:00:00Z,29.2533,-90.6633,1.971,5.98,1111122 
LUMCON,ioos:station:LUMCON:101:1,2019-04-02T05:15:00Z,29.2533,-90.6633,1.966,5.88,1111122 
LUMCON,ioos:station:LUMCON:101:1,2019-04-02T05:30:00Z,29.2533,-90.6633,1.963,5.78,1111122 
LUMCON,ioos:station:LUMCON:101:1,2019-04-02T05:45:00Z,29.2533,-90.6633,1.963,5.69,1111122 
LUMCON,ioos:station:LUMCON:101:1,2019-04-02T06:00:00Z,29.2533,-90.6633,1.957,5.64,1111122 
LUMCON,ioos:station:LUMCON:101:1,2019-04-02T06:15:00Z,29.2533,-90.6633,1.951,5.6,1111122 
LUMCON,ioos:station:LUMCON:101:1,2019-04-02T06:30:00Z,29.2533,-90.6633,1.953,5.56,1111122 
LUMCON,ioos:station:LUMCON:101:1,2019-04-02T06:45:00Z,29.2533,-90.6633,1.941,5.48,1111122 
LUMCON,ioos:station:LUMCON:101:1,2019-04-02T07:00:00Z,29.2533,-90.6633,1.933,5.32,1111122 
LUMCON,ioos:station:LUMCON:101:1,2019-04-02T07:15:00Z,29.2533,-90.6633,1.923,5.22,1111122 
LUMCON,ioos:station:LUMCON:101:1,2019-04-02T07:30:00Z,29.2533,-90.6633,1.904,5.16,1111122 
LUMCON,ioos:station:LUMCON:101:1,2019-04-02T07:45:00Z,29.2533,-90.6633,1.891,5.01,1111122 
LUMCON,ioos:station:LUMCON:101:1,2019-04-02T08:00:00Z,29.2533,-90.6633,1.88,4.87,1111122 
LUMCON,ioos:station:LUMCON:101:1,2019-04-02T08:15:00Z,29.2533,-90.6633,1.87,4.75,1111122 
LUMCON,ioos:station:LUMCON:101:1,2019-04-02T08:30:00Z,29.2533,-90.6633,1.857,4.64,1111122 
LUMCON,ioos:station:LUMCON:101:1,2019-04-02T08:45:00Z,29.2533,-90.6633,1.843,4.56,1111122 
LUMCON,ioos:station:LUMCON:101:1,2019-04-02T09:00:00Z,29.2533,-90.6633,1.832,4.45,1111122 
LUMCON,ioos:station:LUMCON:101:1,2019-04-02T09:15:00Z,29.2533,-90.6633,1.822,4.38,1111122 
LUMCON,ioos:station:LUMCON:101:1,2019-04-02T09:30:00Z,29.2533,-90.6633,1.815,4.34,1111122 
LUMCON,ioos:station:LUMCON:101:1,2019-04-02T09:45:00Z,29.2533,-90.6633,1.805,4.22,1111122 
LUMCON,ioos:station:LUMCON:101:1,2019-04-02T10:00:00Z,29.2533,-90.6633,1.798,4.22,1111122 
LUMCON,ioos:station:LUMCON:101:1,2019-04-02T10:15:00Z,29.2533,-90.6633,1.789,4.18,1111122 
LUMCON,ioos:station:LUMCON:101:1,2019-04-02T10:30:00Z,29.2533,-90.6633,1.781,4.14,1111122 
LUMCON,ioos:station:LUMCON:101:1,2019-04-02T10:45:00Z,29.2533,-90.6633,1.775,4.09,1111122 
LUMCON,ioos:station:LUMCON:101:1,2019-04-02T11:00:00Z,29.2533,-90.6633,1.761,4.07,1111122 
LUMCON,ioos:station:LUMCON:101:1,2019-04-02T11:15:00Z,29.2533,-90.6633,1.747,4.03,1111122 
LUMCON,ioos:station:LUMCON:101:1,2019-04-02T11:30:00Z,29.2533,-90.6633,1.731,4.02,1111122 
LUMCON,ioos:station:LUMCON:101:1,2019-04-02T11:45:00Z,29.2533,-90.6633,1.719,3.99,1111122 
LUMCON,ioos:station:LUMCON:101:1,2019-04-02T12:00:00Z,29.2533,-90.6633,1.709,3.99,1111122 
LUMCON,ioos:station:LUMCON:101:1,2019-04-02T12:15:00Z,29.2533,-90.6633,1.708,3.97,1111122 
LUMCON,ioos:station:LUMCON:101:1,2019-04-02T12:30:00Z,29.2533,-90.6633,1.711,3.98,1111122 
LUMCON,ioos:station:LUMCON:101:1,2019-04-02T12:45:00Z,29.2533,-90.6633,1.714,3.93,1111122 
LUMCON,ioos:station:LUMCON:101:1,2019-04-02T13:00:00Z,29.2533,-90.6633,1.712,3.91,1111122 
LUMCON,ioos:station:LUMCON:101:1,2019-04-02T13:15:00Z,29.2533,-90.6633,1.713,3.94,1111122 
LUMCON,ioos:station:LUMCON:101:1,2019-04-02T13:30:00Z,29.2533,-90.6633,1.706,3.95,1111122 
LUMCON,ioos:station:LUMCON:101:1,2019-04-02T13:45:00Z,29.2533,-90.6633,1.707,3.95,1111122 
LUMCON,ioos:station:LUMCON:101:1,2019-04-02T14:00:00Z,29.2533,-90.6633,1.717,3.97,1111122 
LUMCON,ioos:station:LUMCON:101:1,2019-04-02T14:15:00Z,29.2533,-90.6633,1.725,3.94,1111122 
LUMCON,ioos:station:LUMCON:101:1,2019-04-02T14:30:00Z,29.2533,-90.6633,1.725,3.92,1111122 
LUMCON,ioos:station:LUMCON:101:1,2019-04-02T14:45:00Z,29.2533,-90.6633,1.738,3.93,1111122 
LUMCON,ioos:station:LUMCON:101:1,2019-04-02T15:00:00Z,29.2533,-90.6633,1.742,4.25,1111122 
LUMCON,ioos:station:LUMCON:101:1,2019-04-02T15:15:00Z,29.2533,-90.6633,1.75,4.48,1111122 
LUMCON,ioos:station:LUMCON:101:1,2019-04-02T15:30:00Z,29.2533,-90.6633,1.759,4.47,1111122 
LUMCON,ioos:station:LUMCON:101:1,2019-04-02T15:45:00Z,29.2533,-90.6633,1.76,4.77,1111122 
LUMCON,ioos:station:LUMCON:101:1,2019-04-02T16:00:00Z,29.2533,-90.6633,1.768,4.95,1111122 
LUMCON,ioos:station:LUMCON:101:1,2019-04-02T16:15:00Z,29.2533,-90.6633,1.777,4.98,1111122 
LUMCON,ioos:station:LUMCON:101:1,2019-04-02T16:30:00Z,29.2533,-90.6633,1.792,5.06,1111122 
LUMCON,ioos:station:LUMCON:101:1,2019-04-02T16:45:00Z,29.2533,-90.6633,1.798,4.97,1111122 
LUMCON,ioos:station:LUMCON:101:1,2019-04-02T17:00:00Z,29.2533,-90.6633,1.804,5.0,1111122 
LUMCON,ioos:station:LUMCON:101:1,2019-04-02T17:15:00Z,29.2533,-90.6633,1.809,5.02,1111122 
LUMCON,ioos:station:LUMCON:101:1,2019-04-02T17:30:00Z,29.2533,-90.6633,1.816,5.05,1111122 
LUMCON,ioos:station:LUMCON:101:1,2019-04-02T17:45:00Z,29.2533,-90.6633,1.827,5.13,1111122 
LUMCON,ioos:station:LUMCON:101:1,2019-04-02T18:00:00Z,29.2533,-90.6633,1.837,5.32,1111122 
LUMCON,ioos:station:LUMCON:101:1,2019-04-02T18:15:00Z,29.2533,-90.6633,1.849,5.42,1111122 
LUMCON,ioos:station:LUMCON:101:1,2019-04-02T18:30:00Z,29.2533,-90.6633,1.86,5.46,1111122 
LUMCON,ioos:station:LUMCON:101:1,2019-04-02T18:45:00Z,29.2533,-90.6633,1.872,5.46,1111122 
LUMCON,ioos:station:LUMCON:101:1,2019-04-02T19:00:00Z,29.2533,-90.6633,1.882,5.47,1111122 
LUMCON,ioos:station:LUMCON:101:1,2019-04-02T19:15:00Z,29.2533,-90.6633,1.885,5.54,1111122 
LUMCON,ioos:station:LUMCON:101:1,2019-04-02T19:30:00Z,29.2533,-90.6633,1.891,5.59,1111122 
LUMCON,ioos:station:LUMCON:101:1,2019-04-02T19:45:00Z,29.2533,-90.6633,1.897,5.75,1111122 
LUMCON,ioos:station:LUMCON:101:1,2019-04-02T20:00:00Z,29.2533,-90.6633,1.884,5.7,1111122 
LUMCON,ioos:station:LUMCON:101:1,2019-04-02T20:15:00Z,29.2533,-90.6633,1.91,5.74,1111122 
LUMCON,ioos:station:LUMCON:101:1,2019-04-02T20:30:00Z,29.2533,-90.6633,1.92,5.73,1111122 
LUMCON,ioos:station:LUMCON:101:1,2019-04-02T20:45:00Z,29.2533,-90.6633,1.921,5.78,1111122 
LUMCON,ioos:station:LUMCON:101:1,2019-04-02T21:00:00Z,29.2533,-90.6633,1.93,5.82,1111122 
LUMCON,ioos:station:LUMCON:101:1,2019-04-02T21:15:00Z,29.2533,-90.6633,1.931,5.8,1111122 
LUMCON,ioos:station:LUMCON:101:1,2019-04-02T21:30:00Z,29.2533,-90.6633,1.934,5.77,1111122 
LUMCON,ioos:station:LUMCON:101:1,2019-04-02T21:45:00Z,29.2533,-90.6633,1.937,5.75,1111122 
LUMCON,ioos:station:LUMCON:101:1,2019-04-02T22:00:00Z,29.2533,-90.6633,1.942,5.89,1111122 
LUMCON,ioos:station:LUMCON:101:1,2019-04-02T22:15:00Z,29.2533,-90.6633,1.948,5.88,1111122 
LUMCON,ioos:station:LUMCON:101:1,2019-04-02T22:30:00Z,29.2533,-90.6633,1.948,5.91,1111122 
LUMCON,ioos:station:LUMCON:101:1,2019-04-02T22:45:00Z,29.2533,-90.6633,1.946,5.92,1111122 
LUMCON,ioos:station:LUMCON:101:1,2019-04-02T23:00:00Z,29.2533,-90.6633,1.945,5.94,1111122 
LUMCON,ioos:station:LUMCON:101:1,2019-04-02T23:15:00Z,29.2533,-90.6633,1.944,5.94,1111122 
LUMCON,ioos:station:LUMCON:101:1,2019-04-02T23:30:00Z,29.2533,-90.6633,1.948,5.95,1111122 
LUMCON,ioos:station:LUMCON:101:1,2019-04-02T23:45:00Z,29.2533,-90.6633,1.951,5.96,1111122 
LUMCON,ioos:station:LUMCON:101:1,2019-04-03T00:00:00Z,29.2533,-90.6633,1.954,5.95,1111122 
LUMCON,ioos:station:LUMCON:101:1,2019-04-03T00:15:00Z,29.2533,-90.6633,1.955,5.91,1111122 
LUMCON,ioos:station:LUMCON:101:1,2019-04-03T00:30:00Z,29.2533,-90.6633,1.957,5.85,1111122 
LUMCON,ioos:station:LUMCON:101:1,2019-04-03T00:45:00Z,29.2533,-90.6633,1.957,5.94,1111122 
LUMCON,ioos:station:LUMCON:101:1,2019-04-03T01:00:00Z,29.2533,-90.6633,1.958,5.93,1111122 
LUMCON,ioos:station:LUMCON:101:1,2019-04-03T01:15:00Z,29.2533,-90.6633,1.959,5.91,1111122 
LUMCON,ioos:station:LUMCON:101:1,2019-04-03T01:30:00Z,29.2533,-90.6633,1.957,5.9,1111122 
LUMCON,ioos:station:LUMCON:101:1,2019-04-03T01:45:00Z,29.2533,-90.6633,1.958,5.92,1111122 
LUMCON,ioos:station:LUMCON:101:1,2019-04-03T02:00:00Z,29.2533,-90.6633,1.963,5.88,1111122 
LUMCON,ioos:station:LUMCON:101:1,2019-04-03T02:15:00Z,29.2533,-90.6633,1.968,5.94,1111122 
LUMCON,ioos:station:LUMCON:101:1,2019-04-03T02:30:00Z,29.2533,-90.6633,1.971,5.94,1111122 
LUMCON,ioos:station:LUMCON:101:1,2019-04-03T02:45:00Z,29.2533,-90.6633,1.966,5.93,1111122 
LUMCON,ioos:station:LUMCON:101:1,2019-04-03T03:00:00Z,29.2533,-90.6633,1.966,5.98,1111122 
LUMCON,ioos:station:LUMCON:101:1,2019-04-03T03:15:00Z,29.2533,-90.6633,1.971,5.98,1111122 
LUMCON,ioos:station:LUMCON:101:1,2019-04-03T03:30:00Z,29.2533,-90.6633,1.971,6.01,1111122 
LUMCON,ioos:station:LUMCON:101:1,2019-04-03T03:45:00Z,29.2533,-90.6633,1.971,6.1,1111122 
LUMCON,ioos:station:LUMCON:101:1,2019-04-03T04:00:00Z,29.2533,-90.6633,1.971,6.16,1111122 
LUMCON,ioos:station:LUMCON:101:1,2019-04-03T04:15:00Z,29.2533,-90.6633,1.972,6.21,1111122 
LUMCON,ioos:station:LUMCON:101:1,2019-04-03T04:30:00Z,29.2533,-90.6633,1.976,6.21,1111122 
LUMCON,ioos:station:LUMCON:101:1,2019-04-03T04:45:00Z,29.2533,-90.6633,1.976,6.21,1111122 
LUMCON,ioos:station:LUMCON:101:1,2019-04-03T05:00:00Z,29.2533,-90.6633,1.977,6.33,1111122 
LUMCON,ioos:station:LUMCON:101:1,2019-04-03T05:15:00Z,29.2533,-90.6633,1.977,6.39,1111122 
LUMCON,ioos:station:LUMCON:101:1,2019-04-03T05:30:00Z,29.2533,-90.6633,1.979,6.39,1111122 
LUMCON,ioos:station:LUMCON:101:1,2019-04-03T05:45:00Z,29.2533,-90.6633,1.977,6.31,1111122 
LUMCON,ioos:station:LUMCON:101:1,2019-04-03T06:00:00Z,29.2533,-90.6633,1.975,6.36,1111122 
LUMCON,ioos:station:LUMCON:101:1,2019-04-03T06:15:00Z,29.2533,-90.6633,1.966,6.14,1111122 
LUMCON,ioos:station:LUMCON:101:1,2019-04-03T06:30:00Z,29.2533,-90.6633,1.961,5.89,1111122 
LUMCON,ioos:station:LUMCON:101:1,2019-04-03T06:45:00Z,29.2533,-90.6633,1.96,5.76,1111122 
LUMCON,ioos:station:LUMCON:101:1,2019-04-03T07:00:00Z,29.2533,-90.6633,1.958,5.76,1111122 
LUMCON,ioos:station:LUMCON:101:1,2019-04-03T07:15:00Z,29.2533,-90.6633,1.952,5.86,1111122 
LUMCON,ioos:station:LUMCON:101:1,2019-04-03T07:30:00Z,29.2533,-90.6633,1.947,5.81,1111122 
LUMCON,ioos:station:LUMCON:101:1,2019-04-03T07:45:00Z,29.2533,-90.6633,1.945,5.78,1111122 
LUMCON,ioos:station:LUMCON:101:1,2019-04-03T13:30:00Z,29.2533,-90.6633,1.846,5.09,1111122 
LUMCON,ioos:station:LUMCON:101:1,2019-04-03T13:45:00Z,29.2533,-90.6633,1.846,5.02,1111122 
LUMCON,ioos:station:LUMCON:101:1,2019-04-03T14:00:00Z,29.2533,-90.6633,1.846,4.95,1111122 
LUMCON,ioos:station:LUMCON:101:1,2019-04-03T14:15:00Z,29.2533,-90.6633,1.844,4.96,1111122 
LUMCON,ioos:station:LUMCON:101:1,2019-04-03T14:30:00Z,29.2533,-90.6633,1.841,4.97,1111122 
LUMCON,ioos:station:LUMCON:101:1,2019-04-03T14:45:00Z,29.2533,-90.6633,1.84,4.93,1111122 
LUMCON,ioos:station:LUMCON:101:1,2019-04-03T15:00:00Z,29.2533,-90.6633,1.832,4.94,1111122 
LUMCON,ioos:station:LUMCON:101:1,2019-04-03T15:15:00Z,29.2533,-90.6633,1.837,4.9,1111122 
LUMCON,ioos:station:LUMCON:101:1,2019-04-03T15:30:00Z,29.2533,-90.6633,1.839,4.92,1111122 
LUMCON,ioos:station:LUMCON:101:1,2019-04-03T15:45:00Z,29.2533,-90.6633,1.847,4.93,1111122 
LUMCON,ioos:station:LUMCON:101:1,2019-04-03T16:00:00Z,29.2533,-90.6633,1.85,5.63,1111122 
LUMCON,ioos:station:LUMCON:101:1,2019-04-03T16:15:00Z,29.2533,-90.6633,1.855,5.38,1111122 
LUMCON,ioos:station:LUMCON:101:1,2019-04-03T16:30:00Z,29.2533,-90.6633,1.869,5.46,1111122 
LUMCON,ioos:station:LUMCON:101:1,2019-04-03T16:45:00Z,29.2533,-90.6633,1.872,5.42,1111122 
LUMCON,ioos:station:LUMCON:101:1,2019-04-03T17:00:00Z,29.2533,-90.6633,1.875,5.39,1111122 
LUMCON,ioos:station:LUMCON:101:1,2019-04-03T17:15:00Z,29.2533,-90.6633,1.889,5.37,1111122 
LUMCON,ioos:station:LUMCON:101:1,2019-04-03T17:30:00Z,29.2533,-90.6633,1.895,5.38,1111122 
LUMCON,ioos:station:LUMCON:101:1,2019-04-03T17:45:00Z,29.2533,-90.6633,1.909,5.47,1111122 
LUMCON,ioos:station:LUMCON:101:1,2019-04-03T18:00:00Z,29.2533,-90.6633,1.917,5.51,1111122 
LUMCON,ioos:station:LUMCON:101:1,2019-04-03T18:15:00Z,29.2533,-90.6633,1.924,5.63,1111122 
LUMCON,ioos:station:LUMCON:101:1,2019-04-03T18:30:00Z,29.2533,-90.6633,1.925,5.75,1111122 
LUMCON,ioos:station:LUMCON:101:1,2019-04-03T18:45:00Z,29.2533,-90.6633,1.929,5.86,1111122 
LUMCON,ioos:station:LUMCON:101:1,2019-04-03T19:00:00Z,29.2533,-90.6633,1.932,5.94,1111122 
LUMCON,ioos:station:LUMCON:101:1,2019-04-03T19:15:00Z,29.2533,-90.6633,1.939,6.02,1111122 
LUMCON,ioos:station:LUMCON:101:1,2019-04-03T19:30:00Z,29.2533,-90.6633,1.947,6.08,1111122 
LUMCON,ioos:station:LUMCON:101:1,2019-04-03T19:45:00Z,29.2533,-90.6633,1.952,6.14,1111122 
LUMCON,ioos:station:LUMCON:101:1,2019-04-03T20:00:00Z,29.2533,-90.6633,1.958,6.19,1111122 
LUMCON,ioos:station:LUMCON:101:1,2019-04-03T20:15:00Z,29.2533,-90.6633,1.965,6.24,1111122 
LUMCON,ioos:station:LUMCON:101:1,2019-04-03T20:30:00Z,29.2533,-90.6633,1.967,6.22,1111122 
LUMCON,ioos:station:LUMCON:101:1,2019-04-03T20:45:00Z,29.2533,-90.6633,1.965,6.29,1111122 
LUMCON,ioos:station:LUMCON:101:1,2019-04-03T21:00:00Z,29.2533,-90.6633,1.966,6.39,1111122 
LUMCON,ioos:station:LUMCON:101:1,2019-04-03T21:15:00Z,29.2533,-90.6633,1.97,6.4,1111122 
LUMCON,ioos:station:LUMCON:101:1,2019-04-03T21:30:00Z,29.2533,-90.6633,1.976,6.43,1111122 
LUMCON,ioos:station:LUMCON:101:1,2019-04-03T21:45:00Z,29.2533,-90.6633,1.977,6.47,1111122 
LUMCON,ioos:station:LUMCON:101:1,2019-04-03T22:00:00Z,29.2533,-90.6633,1.979,6.54,1111122 
LUMCON,ioos:station:LUMCON:101:1,2019-04-03T22:15:00Z,29.2533,-90.6633,1.978,6.55,1111122 
LUMCON,ioos:station:LUMCON:101:1,2019-04-03T22:30:00Z,29.2533,-90.6633,1.982,6.59,1111122 
LUMCON,ioos:station:LUMCON:101:1,2019-04-03T22:45:00Z,29.2533,-90.6633,1.982,6.6,1111122 
LUMCON,ioos:station:LUMCON:101:1,2019-04-03T23:00:00Z,29.2533,-90.6633,1.981,6.61,1111122 
LUMCON,ioos:station:LUMCON:101:1,2019-04-03T23:15:00Z,29.2533,-90.6633,1.981,6.61,1111122 
LUMCON,ioos:station:LUMCON:101:1,2019-04-03T23:30:00Z,29.2533,-90.6633,1.98,6.57,1111122 
LUMCON,ioos:station:LUMCON:101:1,2019-04-03T23:45:00Z,29.2533,-90.6633,1.976,6.74,1111122 
LUMCON,ioos:station:LUMCON:101:1,2019-04-04T00:00:00Z,29.2533,-90.6633,1.978,6.81,1111122 
LUMCON,ioos:station:LUMCON:101:1,2019-04-04T00:15:00Z,29.2533,-90.6633,1.979,6.79,1111122 
LUMCON,ioos:station:LUMCON:101:1,2019-04-04T00:30:00Z,29.2533,-90.6633,1.988,7.02,1111122 
LUMCON,ioos:station:LUMCON:101:1,2019-04-04T00:45:00Z,29.2533,-90.6633,1.988,6.76,1111122 
LUMCON,ioos:station:LUMCON:101:1,2019-04-04T01:00:00Z,29.2533,-90.6633,1.991,6.78,1111122 
LUMCON,ioos:station:LUMCON:101:1,2019-04-04T01:15:00Z,29.2533,-90.6633,1.994,6.7,1111122 
LUMCON,ioos:station:LUMCON:101:1,2019-04-04T01:30:00Z,29.2533,-90.6633,1.993,6.78,1111122 
LUMCON,ioos:station:LUMCON:101:1,2019-04-04T01:45:00Z,29.2533,-90.6633,1.995,6.95,1111122 
LUMCON,ioos:station:LUMCON:101:1,2019-04-04T02:00:00Z,29.2533,-90.6633,1.994,7.34,1111122 
LUMCON,ioos:station:LUMCON:101:1,2019-04-04T02:15:00Z,29.2533,-90.6633,1.989,7.59,1111122 
LUMCON,ioos:station:LUMCON:101:1,2019-04-04T02:30:00Z,29.2533,-90.6633,1.987,7.67,1111122 
LUMCON,ioos:station:LUMCON:101:1,2019-04-04T02:45:00Z,29.2533,-90.6633,1.993,7.66,1111122 
LUMCON,ioos:station:LUMCON:101:1,2019-04-04T03:00:00Z,29.2533,-90.6633,1.998,8.03,1111122 
LUMCON,ioos:station:LUMCON:101:1,2019-04-04T03:15:00Z,29.2533,-90.6633,2.002,8.19,1111122 
LUMCON,ioos:station:LUMCON:101:1,2019-04-04T03:30:00Z,29.2533,-90.6633,2.0,8.29,1111122 
LUMCON,ioos:station:LUMCON:101:1,2019-04-04T03:45:00Z,29.2533,-90.6633,2.0,8.49,1111122 
LUMCON,ioos:station:LUMCON:101:1,2019-04-04T04:00:00Z,29.2533,-90.6633,2.01,8.78,1111122 
LUMCON,ioos:station:LUMCON:101:1,2019-04-04T04:15:00Z,29.2533,-90.6633,2.015,8.76,1111122 
LUMCON,ioos:station:LUMCON:101:1,2019-04-04T04:30:00Z,29.2533,-90.6633,2.019,9.02,1111122 
LUMCON,ioos:station:LUMCON:101:1,2019-04-04T04:45:00Z,29.2533,-90.6633,2.005,9.35,1111122 
LUMCON,ioos:station:LUMCON:101:1,2019-04-04T05:00:00Z,29.2533,-90.6633,2.018,9.3,1111122 
LUMCON,ioos:station:LUMCON:101:1,2019-04-04T05:15:00Z,29.2533,-90.6633,2.03,9.62,1111122 
LUMCON,ioos:station:LUMCON:101:1,2019-04-04T05:30:00Z,29.2533,-90.6633,2.036,9.52,1111122 
LUMCON,ioos:station:LUMCON:101:1,2019-04-04T05:45:00Z,29.2533,-90.6633,2.057,9.04,1111122 
LUMCON,ioos:station:LUMCON:101:1,2019-04-04T06:00:00Z,29.2533,-90.6633,2.058,9.26,1111122 
LUMCON,ioos:station:LUMCON:101:1,2019-04-04T06:15:00Z,29.2533,-90.6633,2.045,10.19,1111122 
LUMCON,ioos:station:LUMCON:101:1,2019-04-04T06:30:00Z,29.2533,-90.6633,2.04,10.55,1111122 
LUMCON,ioos:station:LUMCON:101:1,2019-04-04T06:45:00Z,29.2533,-90.6633,2.021,10.38,1111122 
LUMCON,ioos:station:LUMCON:101:1,2019-04-04T07:00:00Z,29.2533,-90.6633,2.003,9.47,1111122 
LUMCON,ioos:station:LUMCON:101:1,2019-04-04T07:15:00Z,29.2533,-90.6633,2.005,9.22,1111122 
LUMCON,ioos:station:LUMCON:101:1,2019-04-04T07:30:00Z,29.2533,-90.6633,2.004,9.46,1111122 
LUMCON,ioos:station:LUMCON:101:1,2019-04-04T07:45:00Z,29.2533,-90.6633,2.006,9.42,1111122 
LUMCON,ioos:station:LUMCON:101:1,2019-04-04T08:00:00Z,29.2533,-90.6633,2.018,9.37,1111122 
LUMCON,ioos:station:LUMCON:101:1,2019-04-04T08:15:00Z,29.2533,-90.6633,2.024,9.23,1111122 